Location: Kearney
(40.6990°N, 99.0810°W)
Time: 15:00:50
(UTC-06:00)

BREEZE-M DEB (TANK) - Pass Details

Date: 18 December 2017
Orbit: 297 x 15442 km, 49.3° (Epoch: 18 January)

Event Time Altitude Azimuth Distance (km) Brightness Sun altitude
Rises 18:21:29 0° 298° (WNW) 2,067 6.4 -12.9°
Reaches altitude 10° 18:23:07 10° 316° (NW) 1,425 5.2 -13.2°
Maximum altitude 18:25:29 24° 16° (NNE) 1,197 4.2 -13.6°
Enters shadow 18:27:21 19° 51° (NE) 1,764 4.8 -13.9°
